Location: Unspecified
(0.0000°N, 0.0000°E)
Time: 09:01:42
(UTC+00:00)

NNS O-29 - Pass Details

Date: 06 August 2024
Orbit: 1013 x 1173 km, 90.4° (Epoch: 07 September)

Event Time Altitude Azimuth Distance (km) Brightness Sun altitude
Rises 19:00:29 0° 2° (N) 3,831 10.3 -13.1°
Reaches altitude 10° 19:03:03 10° 0° (N) 2,858 9.7 -13.7°
Maximum altitude 19:09:33 79° 275° (W) 1,050 7.3 -15.3°
Drops below altitude 10° 19:15:54 10° 188° (S) 2,800 9.3 -16.8°
Sets 19:18:24 0° 187° (S) 3,748 10.0 -17.4°
